Location: Ipswich
(52.0579°N, 1.1528°E)
Time: 20:47:22
(UTC+01:00)

ISS - Pass Details

Date: 20 May 2026
Orbit: 414 x 424 km, 51.6° (Epoch: 15 May)

Event Time Altitude Azimuth Distance (km) Brightness Sun altitude
Rises 21:34:56 0° 281° (W) 2,355 1.1 -6.1°
Reaches altitude 10° 21:37:03 10° 277° (W) 1,490 -0.1 -6.3°
Maximum altitude 21:40:19 52° 200° (SSW) 525 -3.4 -6.6°
Drops below altitude 10° 21:43:34 10° 123° (ESE) 1,488 -1.6 -7.0°
Enters shadow 21:43:47 - 122° (ESE) 1,575 -1.5 -7.0°
